Detroit, MI

11:00 PM EST on December 02, 2016 (GMT -0500)
Detroit Metro Wayne County

Weather History for KDTW - September, 2013

Change the Weather History Date:

Wednesday, September 4, 2013

  Actual Average Record
Temperature  
Mean Temperature 68 °F 69 °F  
Max Temperature 81 °F 78 °F 92 °F (1973)
Min Temperature 55 °F 59 °F 40 °F (1974)
Degree Days  
Heating Degree Days 0 1  
Month to date heating degree days 0 4  
Since 1 July heating degree days 12 14  
Cooling Degree Days 3 5  
Month to date cooling degree days 21 20  
Year to date cooling degree days 814 731  
Growing Degree Days 18 (Base 50)    
Moisture  
Dew Point 57 °F    
Average Humidity 69    
Maximum Humidity 93    
Minimum Humidity 45    
Precipitation  
Precipitation 0.00 in 0.11 in 2.10 in (1918)
Month to date precipitation 0.05 0.43  
Year to date precipitation 31.03 22.86  
Snow  
Snow 0.00 in 0.00 in 0.00 in ()
Month to date snowfall 0.0 0.0  
Since 1 July snowfall 0.0 0.0  
Since 1 September snowfall 0.0 0.0  
Snow Depth 0.00 in    
Sea Level Pressure  
Sea Level Pressure 30.06 in    
Wind  
Wind Speed 9 mph (WSW)    
Max Wind Speed 18 mph    
Max Gust Speed 23 mph    
Visibility 10 miles    
Events      
T = Trace of Precipitation, MM = Missing Value Source: NWS Daily Summary

Daily Weather History Graph

Daily Weather History Graph

Search for Another Location

Airport or City:

Trip Planner

Search our weather history database for the weather conditions in past years. The results will help you decide how hot, cold, wet, or windy it might be!

Date:

Astronomy

Sep. 04, 2013 Rise Set
Actual Time 7:02 AM EDT 8:01 PM EDT
Civil Twilight 6:33 AM EDT 8:30 PM EDT
Nautical Twilight 5:59 AM EDT 9:04 PM EDT
Astronomical Twilight 5:23 AM EDT 9:39 PM EDT
Moon 6:13 AM EDT (9/4) 7:20 PM EDT (9/4)
Length of Visible Light 13h 56m
Length of Day
12h 59m
Waning Crescent, 1% of the Moon is Illuminated
Sep 4
Waning Crescent
Sep 5
New
Sep 12
First Quarter
Sep 19
Full
Sep 26
Last Quarter

Hourly Weather History & Observations

Time (EDT) Temp. Heat Index Dew Point Humidity Pressure Visibility Wind Dir Wind Speed Gust Speed Precip Events Conditions
12:53 AM 62.1 °F - 54.0 °F 75% 30.03 in 10.0 mi West 4.6 mph - N/A   Clear
1:53 AM 61.0 °F - 54.0 °F 78% 30.04 in 10.0 mi Calm Calm - N/A   Clear
2:53 AM 59.0 °F - 54.0 °F 83% 30.04 in 10.0 mi WSW 4.6 mph - N/A   Clear
3:53 AM 57.0 °F - 54.0 °F 89% 30.05 in 10.0 mi SSW 5.8 mph - N/A   Clear
4:53 AM 57.0 °F - 54.0 °F 89% 30.06 in 10.0 mi SSW 6.9 mph - N/A   Clear
5:53 AM 55.9 °F - 53.1 °F 90% 30.06 in 10.0 mi SSW 5.8 mph - N/A   Clear
6:53 AM 55.0 °F - 52.0 °F 89% 30.07 in 10.0 mi South 4.6 mph - N/A   Clear
7:53 AM 57.0 °F - 54.0 °F 89% 30.10 in 10.0 mi SW 4.6 mph - N/A   Clear
8:53 AM 63.0 °F - 55.0 °F 75% 30.09 in 10.0 mi SSW 6.9 mph - N/A   Clear
9:53 AM 68.0 °F - 57.9 °F 70% 30.09 in 10.0 mi WSW 9.2 mph - N/A   Clear
10:53 AM 72.0 °F - 60.1 °F 66% 30.08 in 10.0 mi WSW 11.5 mph - N/A   Partly Cloudy
11:53 AM 73.9 °F - 60.1 °F 62% 30.07 in 10.0 mi SW 12.7 mph - N/A   Partly Cloudy
12:53 PM 75.9 °F - 59.0 °F 56% 30.07 in 10.0 mi WSW 11.5 mph 20.7 mph N/A   Partly Cloudy
1:53 PM 79.0 °F - 57.9 °F 48% 30.07 in 10.0 mi SW 12.7 mph 19.6 mph N/A   Scattered Clouds
2:53 PM 80.1 °F 80.4 °F 57.0 °F 45% 30.05 in 10.0 mi West 11.5 mph 19.6 mph N/A   Partly Cloudy
3:53 PM 80.1 °F 80.6 °F 57.9 °F 47% 30.03 in 10.0 mi WSW 12.7 mph 20.7 mph N/A   Partly Cloudy
4:53 PM 81.0 °F 81.1 °F 57.9 °F 45% 30.02 in 10.0 mi WSW 15.0 mph 19.6 mph N/A   Partly Cloudy
5:53 PM 80.1 °F 80.6 °F 57.9 °F 47% 30.03 in 10.0 mi West 12.7 mph - N/A   Scattered Clouds
6:53 PM 79.0 °F - 59.0 °F 50% 30.01 in 10.0 mi West 10.4 mph - N/A   Scattered Clouds
7:53 PM 75.9 °F - 59.0 °F 56% 30.02 in 10.0 mi West 6.9 mph - N/A   Scattered Clouds
8:53 PM 73.9 °F - 59.0 °F 59% 30.04 in 10.0 mi West 9.2 mph - N/A   Scattered Clouds
9:53 PM 73.0 °F - 59.0 °F 61% 30.05 in 10.0 mi West 8.1 mph - N/A   Scattered Clouds
10:53 PM 71.1 °F - 59.0 °F 66% 30.06 in 10.0 mi West 11.5 mph - N/A   Scattered Clouds
11:53 PM 69.1 °F - 60.1 °F 73% 30.07 in 10.0 mi WNW 6.9 mph - N/A   Scattered Clouds